Weather History for Mineral Point, WI

Change the Weather History Date:

Saturday, March 1, 2014

  Actual Average (KLNR) Record (KLNR)
Temperature  
Mean Temperature 13 °F -  
Max Temperature 21 °F 33 °F 57 °F (2004)
Min Temperature 5 °F 18 °F 3 °F (2014)
Degree Days  
Heating Degree Days 52    
Moisture  
Dew Point 4 °F    
Average Humidity 68    
Maximum Humidity 86    
Minimum Humidity 52    
Precipitation  
Precipitation 0.00 in - - ()
Sea Level Pressure  
Sea Level Pressure 30.21 in    
Wind  
Wind Speed 10 mph (NNW)    
Max Wind Speed 16 mph    
Max Gust Speed 21 mph    
Visibility 7 miles    
Events Snow    
Averages and records for this station are not official NWS values.
T = Trace of Precipitation, MM = Missing Value Source: NWS Daily Summary

Daily Weather History Graph

Daily Weather History Graph

Search for Another Location

Airport:

Trip Planner

Search our weather history database for the weather conditions in past years. The results will help you decide how hot, cold, wet, or windy it might be!

Date:

Astronomy

Mar. 01, 2014 Rise Set
Actual Time 6:36 AM CST 5:50 PM CST
Civil Twilight 6:08 AM CST 6:18 PM CST
Nautical Twilight 5:35 AM CST 6:51 PM CST
Astronomical Twilight 5:02 AM CST 7:24 PM CST
Moon 6:29 AM CST (3/1) 6:40 PM CST (3/1)
Length of Visible Light 12h 10m
Length of Day
11h 13m
New Moon, 0% of the Moon is Illuminated
Mar 1
New Moon
Mar 8
First Quarter
Mar 16
Full
Mar 23
Last Quarter
Mar 30
New

Hourly Weather History & Observations

Time (CST) Temp. Windchill Dew Point Humidity Pressure Visibility Wind Dir Wind Speed Gust Speed Precip Events Conditions
12:15 AM 21.2 °F 10.9 °F 15.8 °F 80% 30.00 in 3.0 mi NNW 9.2 mph - N/A Snow Light Snow
12:35 AM 21.2 °F 10.1 °F 15.8 °F 80% 30.01 in 3.0 mi NNW 10.4 mph - N/A Snow Light Snow
12:55 AM 19.4 °F 7.9 °F 15.8 °F 86% 30.01 in 5.0 mi NNW 10.4 mph - N/A Snow Light Snow
1:15 AM 19.4 °F 7.9 °F 15.8 °F 86% 30.02 in 7.0 mi NNW 10.4 mph - N/A Snow Light Snow
1:35 AM 19.4 °F 8.6 °F 14.0 °F 80% 30.02 in 10.0 mi NNW 9.2 mph - N/A   Overcast
1:55 AM 19.4 °F 9.5 °F 14.0 °F 80% 30.02 in 10.0 mi NNW 8.1 mph - N/A   Overcast
2:15 AM 19.4 °F 7.9 °F 14.0 °F 80% 30.02 in 10.0 mi NNW 10.4 mph - N/A   Overcast
2:35 AM 19.4 °F 6.0 °F 12.2 °F 74% 30.03 in 10.0 mi North 13.8 mph - N/A Snow Light Snow
2:55 AM 19.4 °F 5.0 °F 12.2 °F 74% 30.05 in 10.0 mi NNW 16.1 mph 20.7 mph N/A   Overcast
3:15 AM 19.4 °F 6.6 °F 12.2 °F 74% 30.05 in 10.0 mi NNW 12.7 mph 17.3 mph N/A   Overcast
3:35 AM 17.6 °F 3.7 °F 12.2 °F 79% 30.04 in 7.0 mi North 13.8 mph - N/A Snow Light Snow
3:55 AM 17.6 °F 6.4 °F 10.4 °F 73% 30.07 in 10.0 mi NNW 9.2 mph - N/A   Overcast
4:15 AM 17.6 °F 4.3 °F 8.6 °F 68% 30.09 in 10.0 mi NNW 12.7 mph - N/A   Overcast
4:35 AM 17.6 °F 5.0 °F 8.6 °F 68% 30.09 in 10.0 mi NNW 11.5 mph 19.6 mph N/A   Overcast
4:55 AM 15.8 °F 2.7 °F 8.6 °F 73% 30.11 in 10.0 mi NNW 11.5 mph - N/A   Overcast
5:15 AM 15.8 °F 2.1 °F 8.6 °F 73% 30.11 in 10.0 mi North 12.7 mph - N/A   Overcast
5:35 AM 15.8 °F 2.7 °F 8.6 °F 73% 30.10 in 10.0 mi North 11.5 mph - N/A   Overcast
5:55 AM 15.8 °F 2.7 °F 8.6 °F 73% 30.14 in 10.0 mi NNW 11.5 mph - N/A Snow Light Snow
6:15 AM 14.0 °F 1.2 °F 6.8 °F 73% 30.14 in 10.0 mi NNW 10.4 mph - N/A   Overcast
6:35 AM 14.0 °F 0.5 °F 6.8 °F 73% 30.15 in 10.0 mi North 11.5 mph - N/A   Overcast
6:55 AM 14.0 °F 0.5 °F 5.0 °F 67% 30.15 in 10.0 mi North 11.5 mph 19.6 mph N/A   Overcast
7:15 AM 14.0 °F -1.4 °F 3.2 °F 62% 30.18 in 10.0 mi North 15.0 mph 19.6 mph N/A   Overcast
7:35 AM 14.0 °F 0.5 °F 1.4 °F 57% 30.19 in 10.0 mi North 11.5 mph 17.3 mph N/A   Overcast
7:55 AM 14.0 °F -0.2 °F 1.4 °F 57% 30.22 in 10.0 mi North 12.7 mph 17.3 mph N/A   Overcast
8:15 AM 12.2 °F -2.5 °F 1.4 °F 62% 30.19 in 10.0 mi North 12.7 mph - N/A   Overcast
8:35 AM 12.2 °F 0.7 °F 1.4 °F 62% 30.19 in 10.0 mi North 8.1 mph - N/A   Mostly Cloudy
8:55 AM 14.0 °F 0.5 °F 1.4 °F 57% 30.22 in 10.0 mi North 11.5 mph 16.1 mph N/A   Mostly Cloudy
9:15 AM 14.0 °F 2.9 °F 1.4 °F 57% 30.22 in 10.0 mi North 8.1 mph - N/A   Overcast
9:35 AM 14.0 °F 1.2 °F 1.4 °F 57% 30.24 in 10.0 mi NNW 10.4 mph - N/A   Overcast
9:55 AM 14.0 °F 1.2 °F -0.4 °F 53% 30.24 in 10.0 mi NNW 10.4 mph - N/A   Overcast
10:15 AM 14.0 °F 0.5 °F -0.4 °F 53% 30.24 in 10.0 mi North 11.5 mph - N/A   Overcast
10:35 AM 14.0 °F 0.5 °F -0.4 °F 53% 30.24 in 10.0 mi North 11.5 mph - N/A   Overcast
10:55 AM 14.0 °F 2.0 °F -0.4 °F 53% 30.25 in 10.0 mi NNW 9.2 mph - N/A   Overcast
11:15 AM 14.0 °F 1.2 °F -0.4 °F 53% 30.24 in 7.0 mi North 10.4 mph - N/A Snow Light Snow
11:35 AM 14.0 °F 2.9 °F 1.4 °F 57% 30.24 in 3.0 mi North 8.1 mph - N/A Snow Light Snow
11:55 AM 14.0 °F 3.9 °F 3.2 °F 62% 30.25 in 2.5 mi NNW 6.9 mph - N/A Snow Light Snow
12:15 PM 12.2 °F -1.0 °F 3.2 °F 67% 30.26 in 2.0 mi NNW 10.4 mph - N/A Snow Light Snow
12:35 PM 12.2 °F -1.0 °F 5.0 °F 73% 30.27 in 1.2 mi NNW 10.4 mph - N/A Snow Light Snow
12:55 PM 12.2 °F 1.7 °F 5.0 °F 73% 30.27 in 1.0 mi NNW 6.9 mph - N/A Snow Light Snow
1:15 PM 12.2 °F -1.8 °F 6.8 °F 79% 30.27 in 0.8 mi NNW 11.5 mph - N/A Snow Light Snow
1:35 PM 12.2 °F -0.2 °F 5.0 °F 73% 30.27 in 0.8 mi NW 9.2 mph - N/A Snow Light Snow
1:55 PM 12.2 °F -1.0 °F 5.0 °F 73% 30.26 in 0.8 mi NNW 10.4 mph - N/A Snow Light Snow
2:15 PM 12.2 °F -1.0 °F 5.0 °F 73% 30.25 in 0.8 mi NNW 10.4 mph - N/A Snow Light Snow
2:35 PM 12.2 °F -1.8 °F 5.0 °F 73% 30.26 in 1.2 mi NNW 11.5 mph - N/A Snow Light Snow
3:00 PM 12.2 °F -0.2 °F 5.0 °F 73% 30.26 in 2.5 mi NW 9.2 mph 16.1 mph N/A Snow Light Snow
3:15 PM 12.2 °F -1.0 °F 5.0 °F 73% 30.26 in 1.2 mi NNW 10.4 mph - N/A Snow Light Snow
3:35 PM 12.2 °F -0.2 °F 3.2 °F 67% 30.25 in 4.0 mi NNW 9.2 mph - N/A Snow Light Snow
3:55 PM 10.4 °F -3.3 °F 3.2 °F 73% 30.27 in 1.5 mi North 10.4 mph - N/A Snow Light Snow
4:15 PM 10.4 °F -3.3 °F 5.0 °F 79% 30.28 in 1.2 mi NW 10.4 mph - N/A Snow Light Snow
4:35 PM 10.4 °F -2.4 °F 3.2 °F 73% 30.27 in 1.5 mi NW 9.2 mph - N/A Snow Light Snow
4:55 PM 10.4 °F -1.5 °F 3.2 °F 73% 30.27 in 2.5 mi NW 8.1 mph - N/A Snow Light Snow
5:15 PM 10.4 °F -0.4 °F 3.2 °F 73% 30.27 in 3.0 mi NNW 6.9 mph - N/A Snow Light Snow
5:35 PM 10.4 °F -0.4 °F 3.2 °F 73% 30.28 in 3.0 mi NNW 6.9 mph - N/A Snow Light Snow
5:55 PM 10.4 °F -0.4 °F 3.2 °F 73% 30.29 in 2.0 mi NW 6.9 mph - N/A Snow Light Snow
6:15 PM 10.4 °F -2.4 °F 3.2 °F 73% 30.30 in 2.0 mi NNW 9.2 mph - N/A Snow Light Snow
6:35 PM 10.4 °F 0.8 °F 3.2 °F 73% 30.28 in 4.0 mi NNW 5.8 mph - N/A Snow Light Snow
6:55 PM 10.4 °F -2.4 °F 3.2 °F 73% 30.30 in 10.0 mi NNW 9.2 mph - N/A   Overcast
7:15 PM 10.4 °F 0.8 °F 3.2 °F 73% 30.31 in 10.0 mi WNW 5.8 mph - N/A Snow Light Snow
7:35 PM 10.4 °F -3.3 °F 3.2 °F 73% 30.32 in 10.0 mi NNW 10.4 mph - N/A   Overcast
7:55 PM 8.6 °F -7.0 °F 1.4 °F 73% 30.31 in 10.0 mi NNW 12.7 mph - N/A   Overcast
8:15 PM 8.6 °F -7.0 °F 1.4 °F 73% 30.32 in 10.0 mi NNW 12.7 mph - N/A   Overcast
8:35 PM 8.6 °F -5.5 °F -0.4 °F 67% 30.33 in 10.0 mi NW 10.4 mph - N/A   Overcast
8:55 PM 8.6 °F -7.0 °F -0.4 °F 67% 30.33 in 10.0 mi NNW 12.7 mph - N/A   Overcast
9:15 PM 8.6 °F -5.5 °F -0.4 °F 67% 30.33 in 10.0 mi NNW 10.4 mph - N/A   Overcast
9:35 PM 8.6 °F -4.7 °F -0.4 °F 67% 30.33 in 10.0 mi NNW 9.2 mph - N/A   Overcast
9:55 PM 8.6 °F -4.7 °F -2.2 °F 62% 30.32 in 10.0 mi NNW 9.2 mph - N/A   Overcast
10:15 PM 8.6 °F -6.3 °F -5.8 °F 52% 30.33 in 10.0 mi NNW 11.5 mph - N/A   Overcast
10:35 PM 6.8 °F -8.6 °F -5.8 °F 56% 30.33 in 10.0 mi NNW 11.5 mph 17.3 mph N/A   Overcast
10:55 PM 6.8 °F -8.6 °F -7.6 °F 52% 30.34 in 10.0 mi NNW 11.5 mph - N/A   Overcast
11:15 PM 5.0 °F -11.6 °F -9.4 °F 52% 30.34 in 10.0 mi North 12.7 mph - N/A   Overcast
11:35 PM 5.0 °F -10.8 °F -9.4 °F 52% 30.34 in 10.0 mi NNW 11.5 mph 16.1 mph N/A   Overcast
11:55 PM 5.0 °F -9.1 °F -9.4 °F 52% 30.35 in 10.0 mi NNW 9.2 mph - N/A   Overcast